Tracking 28790 objects as of 19-Apr-2024
HD Live streaming from Space Station
objects crossing your sky now

SL-8 DEB

Track SL-8 DEB now!
10-day predictions


NORAD ID: 10525
Int'l Code: 1977-119D
Perigee: 657.2 km
Apogee: 670.8 km
Inclination: 74.0 °
Period: 97.9 minutes
Semi major axis: 7035 km
RCS: 0.0071 m2 (small)
Launch date: December 16, 1977
Source: Commonwealth of Independent States (former USSR) (CIS)
Launch site: PLESETSK MISSILE AND SPACE COMPLEX (PKMTR)

Note: This is SATELLITE DEBRIS
Your satellite tracking list
Your tracking list is empty




NASA's NSSDC Master Catalog

Two Line Element Set (TLE):
1 10525U 77119D   24109.70166943  .00008849  00000-0  14341-2 0  9994
2 10525  74.0218 203.1346 0009679  59.4675 300.7450 14.71317446447443
Source of the keplerian elements: AFSPC